Location: Hurecourt
(47.9030°N, 6.0653°E)
Time: 08:48:03
(UTC+00:00)

Cosmos 1833 Rocket - Pass Details

Date: 14 July 2020
Orbit: 832 x 840 km, 71.0° (Epoch: 14 August)

Event Time Altitude Azimuth Distance (km) Brightness Sun altitude
Exits shadow 02:26:28 15° 229° (SW) 2,134 4.2 -11.3°
Maximum altitude 02:31:04 53° 303° (WNW) 1,025 3.1 -10.8°
Drops below altitude 10° 02:36:34 10° 20° (NNE) 2,455 6.4 -10.2°
Sets 02:39:06 0° 26° (NNE) 3,394 7.6 -9.9°
